Location: Quail Creek Observatory
(32.9410°N, 97.1240°W)
Time: 22:41:11
(UTC-05:00)

Daily predictions for brighter satellites

Satellite Brightness Start Highest point End
(mag) Time Altitude Azimuth Time Altitude Azimuth Time Altitude Azimuth
Milstar 3 3.4 20:15:58 10° W 20:26:19 64° S 20:33:04 10° ESE
DELTA 2 R/B (1) 4.2 20:21:56 10° WNW 20:27:22 52° SSW 20:32:48 10° SE
Helios 1B rocket 3.9 20:26:48 10° NE 20:29:34 17° E 20:32:19 10° SE
ATLAS 5 CENTAUR R/B 4.1 20:25:52 10° N 20:29:59 18° NE 20:34:17 10° E
SEDSat Delta rocket 3.4 20:26:41 10° WSW 20:31:26 74° S 20:36:55 10° E
SJ-6B 2.9 20:28:44 10° SSE 20:32:39 87° WSW 20:36:43 10° NNW
ERBS 2.3 20:32:40 10° NW 20:36:08 80° NE 20:39:36 10° SE
SL-16 R/B 2.2 20:32:04 10° SSW 20:37:43 86° ESE 20:43:25 10° NNE
Cosmos 1400 Rocket 3.9 20:34:25 10° NNW 20:38:12 48° W 20:42:02 10° S
FREGAT/IRIS 3.8 20:36:22 10° S 20:39:16 45° W 20:42:12 10° NNW
Sakura Rocket 3.6 20:39:39 10° SW 20:42:54 31° SSE 20:46:24 10° ESE
CZ-2D R/B 3.7 20:41:08 10° SE 20:44:49 42° ENE 20:48:30 10° N
Resurs 01 Rocket 1.7 20:43:53 10° SSE 20:48:16 63° ENE 20:52:41 10° N
GRACE-1 3.8 20:47:20 10° N 20:50:04 87° W 20:52:47 10° S
GRACE-2 3.8 20:47:42 10° N 20:50:26 87° W 20:53:09 10° S
HJ-1C 4.0 20:49:26 10° S 20:52:50 60° W 20:56:15 10° NNW
Cosmos 1315 Rocket 3.5 20:52:57 10° NNW 20:56:56 58° W 21:00:50 10° S
USA 229 DEB 3.9 20:54:14 10° S 21:00:41 48° ESE 21:07:15 10° NE
USA 229 3.9 20:54:21 10° S 21:00:48 47° ESE 21:07:20 10° NE
ALOS 3.5 20:56:48 10° S 21:01:14 44° W 21:05:42 10° NNW
Cosmos 1933 3.6 20:59:44 10° SSE 21:03:36 46° E 21:07:28 10° NNE
OAO 3 Rocket 3.3 20:58:44 10° WNW 21:03:36 75° N 21:07:40 15° E
Cosmos 1992 Rocket 4.3 21:04:32 10° SSW 21:09:45 74° WNW 21:15:00 10° NNE
Meteor 2-10 Rocket 4.1 21:06:38 10° SSE 21:12:06 44° E 21:17:33 10° NNE
DASH 3.9 21:07:35 10° W 21:13:33 28° SSW 21:15:32 16° SSE
ATLAS CENTAUR R/B 4.2 21:15:01 10° WNW 21:18:09 26° SW 21:24:47 10° S
Cosmos 2219 Rocket 4.0 21:20:01 13° ENE 21:20:01 13° ENE 21:21:11 10° ENE
Helios 1A 3.1 21:15:37 18° SSE 21:18:39 56° ENE 21:22:49 10° N
Cosmos 1733 Rocket 3.0 21:14:14 10° N 21:18:40 65° E 21:22:17 15° SSE
Cosmos 2026 Rocket 3.9 21:14:13 10° N 21:20:25 90° WSW 21:26:31 10° S
Cosmos 1862 3.2 21:18:31 10° N 21:22:33 70° E 21:25:26 18° SSE
Cosmos 1862 Rocket 3.6 21:19:46 10° S 21:24:13 83° W 21:28:43 10° N
Meteor 1-26 Rocket 4.3 21:25:56 10° S 21:31:26 55° E 21:37:04 10° NNE
Spot 1 4.4 21:31:53 17° SSE 21:35:57 88° ENE 21:41:02 10° NNW
USA 186 2.9 21:34:21 17° SSW 21:36:05 36° W 21:38:49 10° NNW
SAR-Lupe-4 3.5 21:37:25 31° S 21:39:01 82° WSW 21:42:37 10° NNW
Cosmos 1939 Rocket 2.8 21:39:18 38° SSE 21:40:43 68° ENE 21:44:42 10° N
Cosmos 2263 Rocket 2.2 21:38:02 10° NNW 21:43:38 83° WSW 21:46:54 26° SSE
Cosmos 1703 Rocket 3.6 21:43:25 37° SSE 21:44:57 58° E 21:49:18 10° NNE
Cosmos 968 Rocket 3.6 21:42:25 10° N 21:47:33 56° ENE 21:49:07 40° SE
Cosmos 2237 4.1 21:45:46 10° SSW 21:51:29 81° ESE 21:57:14 10° NNE
Cosmos 1825 4.4 21:51:29 10° NW 21:54:35 24° W 21:57:41 10° SW
CZ-4B DEB 3.2 21:54:55 51° WSW 21:55:03 52° W 21:58:02 10° NNW
SJ-11-01 4.3 21:53:56 32° S 21:56:04 76° WSW 22:00:45 10° NNW
Atlas Centaur 2 2.7 21:51:50 10° W 21:58:27 74° S 22:02:01 35° ESE
Cosmos 2360 Rocket 3.1 21:53:11 10° SW 21:58:37 49° WNW 22:04:06 10° N
Chunghua 1 4.4 21:56:09 10° W 21:59:50 83° NNW 21:59:50 83° NNW
Envisat 3.4 21:57:21 23° S 22:00:29 60° W 22:05:31 10° NNW
COSMOS 2428 2.6 21:55:17 10° SSW 22:00:55 73° ESE 22:06:36 10° NNE
USA 234 3.8 21:59:28 31° E 22:02:09 46° NE 22:08:19 10° NNW
Lacrosse 4 Rocket 3.8 22:01:42 10° WNW 22:04:53 20° WSW 22:07:49 11° SSW
H-2A R/B 3.7 22:09:10 19° NE 22:09:10 19° NE 22:11:42 10° NNE
Cosmos 2266 Rocket 3.9 22:03:12 10° N 22:09:33 76° E 22:11:42 44° SSE
Cosmos 2221 Rocket 3.4 22:09:27 79° SSE 22:09:41 84° E 22:14:07 10° N
Cosmos 1867 3.4 22:05:06 10° NNW 22:10:34 85° ENE 22:11:34 61° SE
NOAA 11 4.3 22:10:51 51° E 22:11:22 53° ENE 22:16:41 10° N
ATLAS 5 CENTAUR R/B 2.5 22:09:03 10° NNW 22:15:16 79° WSW 22:17:15 48° SSE
SEDSat Delta rocket 3.5 22:12:32 10° W 22:17:43 68° S 22:18:07 65° SSE
ARGOS 3.6 22:18:59 44° ENE 22:18:59 44° ENE 22:23:50 10° N
Meteor 1-14 Rocket 4.2 22:16:18 10° N 22:22:03 86° W 22:23:19 57° S
ERS-1 Rocket 2.9 22:22:02 70° S 22:22:35 82° WSW 22:27:38 10° NNW
Meteor 1-25 Rocket 4.1 22:17:19 10° N 22:22:51 68° E 22:23:01 67° E
SeaSat 1 3.8 22:24:45 26° NE 22:24:45 26° NE 22:28:13 10° N
YAOGAN 6 4.2 22:32:38 34° WNW 22:32:38 34° WNW 22:35:18 10° NNW
Meteor 1-20 Rocket 4.1 22:26:46 10° N 22:32:18 73° ENE 22:32:18 73° ENE
Cosmos 2237 Rocket 3.8 22:40:20 23° NE 22:40:20 23° NE 22:42:31 10° NE
SPOT 5 3.4 22:39:13 51° N 22:39:13 51° N 22:42:46 10° N
Cosmos 2333 Rocket 2.8 22:41:57 47° NE 22:41:57 47° NE 22:46:05 10° NNE
Meteor 2-6 Rocket 4.3 22:43:44 74° NE 22:43:44 74° NE 22:49:17 10° N
NOSS 3-1 (C) 3.5 22:41:22 22° SW 22:45:06 70° WNW 22:51:20 10° NNE
Cosmos 1844 Rocket 2.9 22:39:38 10° NNW 22:44:25 58° NNE 22:44:25 58° NNE
MetOp-A 4.2 22:45:46 71° W 22:45:46 71° W 22:51:00 10° NNW
Cosmos 2278 Rocket 3.7 22:41:57 10° N 22:45:29 24° NE 22:45:29 24° NE
OAO 3 Rocket 4.4 22:42:21 10° W 22:45:28 36° WSW 22:45:28 36° WSW
Gbstr 26 Del rocket 4.3 22:43:44 10° SW 22:51:15 80° SE 22:59:27 10° NE
SPOT 1/Viking Rocket 4.2 22:57:12 49° N 22:57:12 49° N 23:01:02 10° N
CZ-4C R/B 3.8 22:49:56 10° NNW 22:56:29 34° NE 22:57:01 34° ENE
USA 245 4.5 22:58:55 63° NW 22:58:55 63° NW 23:03:14 10° NNW
Cosmos 2219 Rocket 2.6 23:01:36 58° WNW 23:01:36 58° WNW 23:07:08 10° NNE
NOSS 3-1 (A) 3.6 23:02:34 64° N 23:02:34 64° N 23:08:04 10° NNE
Milstar 3 4.0 23:03:09 10° W 23:07:27 27° SW 23:07:27 27° SW
S3M 4.5 23:13:06 53° NNE 23:13:06 53° NNE 23:17:43 10° N
Terra 3.8 23:23:55 23° N 23:23:55 23° N 23:25:45 10° N
H-2A R/B 3.8 23:04:47 10° W 23:43:21 60° SW 23:43:21 60° SW
USA 234 4.3 23:46:48 36° W 23:46:48 36° W 23:51:14 10° WNW
H-2A R/B 4.0 23:49:47 23° NW 23:49:47 23° NW 23:51:56 10° NNW
Atlas Centaur 2 3.9 23:40:46 10° W 23:44:39 34° WSW 23:44:39 34° WSW
